Simultaneous Nadir Overpasses (SNOs) Predictions

Prediction of SNOs between METOP-C and LANDSAT-8 Satellite Orbit:

Table of predicted SNOs for the next 14.0 days since TLE Epoch: 8/7/2021
Index Date (METOP-C) Time (METOP-C) Lat,Lon (METOP-C) SZA (METOP-C ) Date (LANDSAT-8) Time (LANDSAT-8) Lat,Lon (LANDSAT-8) SZA (LANDSAT-8 ) Distance(km) Time Diff (sec)
1 08/08/2021 14:49:27 -81.15, 177.89 112.79 08/08/2021 14:50:18 -81.15, 178.00 112.76 1.85 51
2 08/08/2021 15:40:06 81.18, -13.91 67.33 08/08/2021 15:39:43 81.18, -13.91 67.32 0.05 23
3 08/11/2021 10:23:46 -81.16,-115.45 111.93 08/11/2021 10:24:33 -81.16,-115.45 111.91 0.04 47
4 08/11/2021 11:14:25 81.19, 52.76 68.19 08/11/2021 11:13:58 81.19, 52.61 68.16 2.51 27
5 08/14/2021 05:58:06 -81.17, -48.80 111.04 08/14/2021 05:58:49 -81.17, -48.92 111.04 2.08 43
6 08/14/2021 06:48:46 81.19, 119.03 69.04 08/14/2021 06:48:14 81.19, 119.11 69.04 1.48 32
7 08/17/2021 01:32:27 -81.17, 17.45 110.17 08/17/2021 01:33:05 -81.17, 17.57 110.13 2.12 38
8 08/17/2021 02:23:06 81.19,-174.34 69.96 08/17/2021 02:22:30 81.19,-174.42 69.94 1.47 36
9 08/19/2021 21:06:46 -81.17, 84.07 109.22 08/19/2021 21:07:20 -81.17, 84.03 109.21 0.66 34



Historial Predications of SNOs between METOP-C and LANDSAT-8
